Weather History for K5H4 - November, 2011

Change the Weather History Date:

Monday, November 14, 2011

  Actual Average (KRUG) Record (KRUG)
Temperature  
Mean Temperature 32 °F -  
Max Temperature 41 °F 35 °F 65 °F (1953)
Min Temperature 24 °F 19 °F -10 °F (1959)
Degree Days  
Heating Degree Days 32    
Moisture  
Dew Point 28 °F    
Average Humidity 85    
Maximum Humidity 100    
Minimum Humidity 57    
Precipitation  
Precipitation 0.65 in - - ()
Sea Level Pressure  
Sea Level Pressure 29.35 in    
Wind  
Wind Speed 11 mph (West)    
Max Wind Speed 20 mph    
Max Gust Speed 28 mph    
Visibility 9 miles    
Events Snow    
Averages and records for this station are not official NWS values.
T = Trace of Precipitation, MM = Missing Value Source: NWS Daily Summary

Daily Weather History Graph

Daily Weather History Graph

Search for Another Location

Airport or City:

Trip Planner

Search our weather history database for the weather conditions in past years. The results will help you decide how hot, cold, wet, or windy it might be!

Date:

Astronomy

Nov. 14, 2011 Rise Set
Actual Time 7:43 AM CST 5:04 PM CST
Civil Twilight 7:10 AM CST 5:37 PM CST
Nautical Twilight 6:32 AM CST 6:15 PM CST
Astronomical Twilight 5:56 AM CST 6:51 PM CST
Moon 8:07 PM CST (11/14) 11:09 AM CST (11/14)
Length of Visible Light 10h 27m
Length of Day
9h 20m
Waning Gibbous, 86% of the Moon is Illuminated
Nov 14
Waning Gibbous
Nov 18
Last Quarter
Nov 25
New
Dec 2
First Quarter
Dec 10
Full

Hourly Weather History & Observations

Time (CST) Temp. Windchill Dew Point Humidity Pressure Visibility Wind Dir Wind Speed Gust Speed Precip Events Conditions
12:15 AM 28.4 °F 18.5 °F 24.8 °F 86% 29.28 in 10.0 mi WSW 11.5 mph - N/A   Clear
12:35 AM 28.4 °F 19.1 °F 26.6 °F 93% 29.28 in 10.0 mi WSW 10.4 mph - N/A   Clear
12:55 AM 28.4 °F 19.1 °F 26.6 °F 93% 29.28 in 10.0 mi West 10.4 mph - N/A   Clear
1:15 AM 26.6 °F 18.2 °F 26.6 °F 100% 29.28 in 10.0 mi WSW 8.1 mph - N/A   Clear
1:35 AM 28.4 °F 21.2 °F 26.6 °F 93% 29.29 in 10.0 mi West 6.9 mph - N/A   Clear
1:55 AM 28.4 °F 20.4 °F 26.6 °F 93% 29.29 in 10.0 mi West 8.1 mph - N/A   Clear
2:15 AM 26.6 °F 18.2 °F 24.8 °F 93% 29.29 in 10.0 mi WSW 8.1 mph - N/A   Clear
2:35 AM 24.8 °F 16.1 °F 24.8 °F 100% 29.30 in 10.0 mi WSW 8.1 mph - N/A   Clear
2:55 AM 26.6 °F 18.2 °F 24.8 °F 93% 29.30 in 10.0 mi WSW 8.1 mph - N/A   Clear
3:15 AM 26.6 °F 18.2 °F 24.8 °F 93% 29.30 in 10.0 mi WSW 8.1 mph - N/A   Clear
3:35 AM 24.8 °F 15.3 °F 24.8 °F 100% 29.30 in 10.0 mi WSW 9.2 mph - N/A   Clear
3:55 AM 24.8 °F 16.1 °F 24.8 °F 100% 29.30 in 10.0 mi SW 8.1 mph - N/A   Clear
4:15 AM 24.8 °F 16.9 °F 23.0 °F 93% 29.29 in 10.0 mi WSW 6.9 mph - N/A   Clear
4:35 AM 24.8 °F 15.3 °F 24.8 °F 100% 29.30 in 10.0 mi WSW 9.2 mph - N/A   Clear
4:55 AM 26.6 °F 15.2 °F 24.8 °F 93% 29.30 in 10.0 mi WSW 13.8 mph - N/A   Clear
5:15 AM 26.6 °F 14.7 °F 24.8 °F 93% 29.31 in 10.0 mi WSW 15.0 mph - N/A   Clear
5:35 AM 26.6 °F 16.2 °F 24.8 °F 93% 29.31 in 10.0 mi WSW 11.5 mph - N/A   Clear
6:15 AM 26.6 °F 16.2 °F 24.8 °F 93% 29.31 in 10.0 mi West 11.5 mph - N/A   Clear
6:35 AM 26.6 °F 16.2 °F 24.8 °F 93% 29.31 in 10.0 mi WSW 11.5 mph - N/A   Clear
6:55 AM 26.6 °F 16.2 °F 24.8 °F 93% 29.32 in 10.0 mi WSW 11.5 mph - N/A   Clear
7:15 AM 26.6 °F 16.8 °F 26.6 °F 100% 29.32 in 10.0 mi WSW 10.4 mph - N/A   Clear
7:35 AM 28.4 °F 19.1 °F 28.4 °F 100% 29.33 in 10.0 mi WSW 10.4 mph - N/A   Scattered Clouds
7:55 AM 28.4 °F 19.7 °F 28.4 °F 100% 29.34 in 10.0 mi West 9.2 mph - N/A   Partly Cloudy
8:35 AM 32.0 °F 20.8 °F 32.0 °F 100% 29.34 in 1.5 mi NW 17.3 mph 25.3 mph 0.14 in Snow Light Snow
8:55 AM 32.0 °F 20.1 °F 32.0 °F 100% 29.35 in 1.5 mi NW 19.6 mph - 0.20 in Snow Light Snow
9:15 AM 32.0 °F 21.2 °F 32.0 °F 100% 29.36 in 0.8 mi NW 16.1 mph - 0.11 in Snow Light Snow
9:35 AM 32.0 °F 24.2 °F 32.0 °F 100% 29.36 in 0.5 mi NNW 9.2 mph - 0.43 in Snow Snow
9:55 AM 32.0 °F 28.7 °F 32.0 °F 100% 29.36 in 10.0 mi NNW 3.5 mph - 0.45 in Snow Light Snow
10:15 AM 32.0 °F 25.6 °F 32.0 °F 100% 29.36 in 10.0 mi SW 6.9 mph - N/A   Clear
10:35 AM 32.0 °F 23.6 °F 32.0 °F 100% 29.36 in 10.0 mi SW 10.4 mph - N/A   Scattered Clouds
10:55 AM 32.0 °F 22.5 °F 32.0 °F 100% 29.37 in 10.0 mi WSW 12.7 mph - N/A   Overcast
11:15 AM 32.0 °F 23.0 °F 32.0 °F 100% 29.37 in 10.0 mi SW 11.5 mph - N/A   Scattered Clouds
11:35 AM 35.6 °F 25.5 °F 35.6 °F 100% 29.36 in 10.0 mi WSW 17.3 mph - N/A   Clear
11:55 AM 37.4 °F 28.2 °F 33.8 °F 87% 29.36 in 10.0 mi WSW 16.1 mph 24.2 mph N/A   Clear
12:15 PM 37.4 °F 28.9 °F 35.6 °F 93% 29.36 in 10.0 mi WSW 13.8 mph 24.2 mph N/A   Clear
12:35 PM 39.2 °F 30.2 °F 33.8 °F 81% 29.36 in 10.0 mi WSW 17.3 mph 21.9 mph N/A   Partly Cloudy
12:55 PM 39.2 °F 30.5 °F 32.0 °F 75% 29.35 in 10.0 mi WSW 16.1 mph 19.6 mph N/A   Clear
1:15 PM 41.0 °F 32.2 °F 32.0 °F 70% 29.35 in 10.0 mi WSW 18.4 mph - N/A   Clear
1:35 PM 41.0 °F 32.2 °F 32.0 °F 70% 29.35 in 10.0 mi WSW 18.4 mph - N/A   Clear
1:55 PM 41.0 °F 32.2 °F 32.0 °F 70% 29.34 in 10.0 mi WSW 18.4 mph - N/A   Clear
2:15 PM 39.2 °F 31.6 °F 30.2 °F 70% 29.34 in 10.0 mi WSW 12.7 mph - N/A   Clear
2:35 PM 41.0 °F 33.1 °F 30.2 °F 65% 29.34 in 10.0 mi WSW 15.0 mph - N/A   Clear
2:55 PM 41.0 °F 34.3 °F 30.2 °F 65% 29.34 in 10.0 mi WSW 11.5 mph - N/A   Clear
3:15 PM 41.0 °F 31.9 °F 26.6 °F 57% 29.34 in 10.0 mi West 19.6 mph 27.6 mph N/A   Clear
3:35 PM 41.0 °F 32.8 °F 26.6 °F 57% 29.35 in 10.0 mi WSW 16.1 mph 25.3 mph N/A   Clear
3:55 PM 41.0 °F 32.8 °F 28.4 °F 61% 29.35 in 10.0 mi West 16.1 mph - N/A   Clear
4:15 PM 41.0 °F 31.9 °F 26.6 °F 57% 29.35 in 10.0 mi West 19.6 mph 25.3 mph N/A   Scattered Clouds
4:35 PM 41.0 °F 33.1 °F 26.6 °F 57% 29.36 in 10.0 mi West 15.0 mph - N/A   Mostly Cloudy
4:55 PM 39.2 °F 31.2 °F 26.6 °F 61% 29.37 in 10.0 mi West 13.8 mph - N/A   Partly Cloudy
5:15 PM 39.2 °F 31.6 °F 26.6 °F 61% 29.38 in 10.0 mi West 12.7 mph 18.4 mph N/A   Clear
5:35 PM 37.4 °F 29.8 °F 26.6 °F 65% 29.38 in 10.0 mi West 11.5 mph - N/A   Scattered Clouds
5:55 PM 37.4 °F 30.8 °F 24.8 °F 60% 29.39 in 10.0 mi West 9.2 mph - N/A   Mostly Cloudy
6:15 PM 35.6 °F 29.2 °F 24.8 °F 65% 29.40 in 10.0 mi West 8.1 mph - N/A   Partly Cloudy
6:35 PM 33.8 °F 26.4 °F 24.8 °F 70% 29.41 in 10.0 mi WNW 9.2 mph - N/A   Clear
6:55 PM 32.0 °F 24.8 °F 24.8 °F 75% 29.42 in 10.0 mi WNW 8.1 mph - N/A   Clear
7:15 PM 30.2 °F 21.3 °F 23.0 °F 75% 29.43 in 10.0 mi WNW 10.4 mph - N/A   Clear
7:35 PM 32.0 °F 25.6 °F 24.8 °F 75% 29.44 in 10.0 mi West 6.9 mph - N/A   Clear
7:55 PM 30.2 °F 23.4 °F 23.0 °F 75% 29.44 in 10.0 mi West 6.9 mph - N/A   Clear
8:15 PM 28.4 °F 21.2 °F 24.8 °F 86% 29.45 in 10.0 mi West 6.9 mph - N/A   Clear
8:35 PM 26.6 °F 19.1 °F 23.0 °F 86% 29.45 in 10.0 mi West 6.9 mph - N/A   Clear
8:55 PM 28.4 °F 23.3 °F 23.0 °F 80% 29.45 in 10.0 mi WNW 4.6 mph - N/A   Clear
9:15 PM 28.4 °F 21.2 °F 23.0 °F 80% 29.46 in 10.0 mi West 6.9 mph - N/A   Clear
9:35 PM 26.6 °F 21.2 °F 23.0 °F 86% 29.46 in 10.0 mi West 4.6 mph - N/A   Clear
9:55 PM 24.8 °F 19.1 °F 21.2 °F 86% 29.46 in 10.0 mi WSW 4.6 mph - N/A   Clear
10:15 PM 23.0 °F 14.7 °F 21.2 °F 93% 29.47 in 10.0 mi WSW 6.9 mph - N/A   Clear
10:35 PM 24.8 °F 16.9 °F 21.2 °F 86% 29.47 in 10.0 mi WSW 6.9 mph - N/A   Clear
10:55 PM 24.8 °F 16.9 °F 23.0 °F 93% 29.47 in 10.0 mi WSW 6.9 mph - N/A   Clear
11:15 PM 24.8 °F 16.9 °F 21.2 °F 86% 29.48 in 10.0 mi West 6.9 mph - N/A   Clear
11:35 PM 23.0 °F 13.9 °F 19.4 °F 86% 29.49 in 10.0 mi WSW 8.1 mph - N/A   Clear
11:55 PM 23.0 °F 14.7 °F 19.4 °F 86% 29.48 in 10.0 mi SW 6.9 mph - N/A   Clear